Wind_Speed
1 5 3 1 2 2 1 2 5 2 1 5 5 12 13 7 7 9 10 11 12 13 10 11 14 17 18 18 18 19 20 19 18 17 16 16 18 17 17 18 19 18 17 17
4 4 3 6 4 1 1 4 4 3 2 5 7 15 11 6 5 5 5 10 12 11 11 13 15 16 19 19 21 20 21 19 20 19 16 14 11 14 17 15 18 20 20 20
6 3 7 3 5 4 3 5 2 4 7 4 8 7 6 4 5 5 7 6 6 10 12 12 16 17 17 19 21 21 21 20 20 20 17 15 15 18 18 20 21 21 20 20
4 4 5 4 4 4 5 2 1 3 4 3 1 1 7 7 5 6 5 6 6 8 9 10 14 16 19 19 17 18 18 19 19 19 19 20 19 19 16 15 15 15 17 20
3 5 6 5 1 4 2 1 1 2 5 5 5 4 5 5 8 8 7 5 4 4 6 8 11 14 16 15 16 16 17 18 19 20 22 20 22 20 18 17 17 17 18 21
2 0 2 1 3 1 6 2 2 3 3 5 4 3 6 9 11 11 7 5 5 4 4 5 7 10 11 11 13 15 17 19 20 22 24 25 24 20 19 18 18 17 17 18
4 6 3 2 4 4 4 3 3 4 4 2 2 4 7 8 6 10 10 8 6 5 5 6 8 11 12 13 12 14 16 17 18 21 23 25 26 23 23 22 20 18 18 18
8 6 11 8 3 2 8 3 3 3 2 1 2 6 2 5 5 5 5 6 5 6 6 7 8 10 11 11 11 13 14 14 16 18 21 22 23 22 22 22 21 20 19 18
6 4 2 1 1 2 6 7 3 0 1 4 3 5 8 7 9 9 10 8 9 9 8 8 9 9 9 10 11 12 12 12 13 15 15 16 18 20 22 21 20 20 20 19
4 3 1 3 2 1 4 4 3 3 3 5 5 5 6 15 18 15 14 13 11 9 8 7 8 9 9 9 9 9 10 9 8 9 10 12 13 15 17 18 19 20 20 19
6 4 4 3 10 11 5 5 4 2 3 3 3 3 1 16 20 20 18 15 13 11 9 8 8 7 7 7 8 8 8 7 5 5 6 7 9 11 13 15 17 17 17 18
9 4 6 5 2 3 4 7 10 4 5 2 2 5 2 3 14 15 17 15 12 10 10 8 9 9 9 9 8 8 7 6 5 4 3 4 6 9 12 13 15 15 17 17
11 7 4 4 3 3 7 11 7 2 1 7 4 3 1 2 6 12 14 14 12 12 11 10 10 12 12 11 10 9 8 7 6 5 4 3 6 9 12 13 14 15 16 16
8 6 11 8 2 4 6 10 15 13 6 9 12 9 3 5 7 12 13 13 15 13 13 12 11 14 14 14 13 12 11 10 9 7 6 6 7 10 13 15 16 16 15 15
7 8 13 14 3 4 4 7 15 20 22 10 8 16 21 11 9 12 14 13 15 14 14 14 13 13 17 16 15 14 13 12 11 10 8 8 10 13 15 16 16 16 15 15
5 7 4 8 8 12 15 15 16 21 22 23 22 26 16 13 7 9 15 16 17 18 17 16 15 17 19 20 19 16 15 15 13 11 9 9 12 14 15 15 15 15 14 13
9 8 5 10 3 4 12 22 22 15 14 21 18 28 13 10 17 19 17 17 19 20 20 18 17 20 22 22 21 20 19 15 15 11 8 9 12 14 14 15 13 12 12 12
10 11 7 6 4 11 5 2 16 23 21 25 20 23 15 19 16 14 14 17 20 17 19 18 19 22 25 20 20 19 16 16 14 10 9 8 10 11 13 12 11 12 12 12
12 11 4 6 11 16 18 6 9 14 16 23 23 28 24 10 6 20 21 16 19 17 17 24 25 25 24 24 20 19 15 13 12 11 8 9 9 11 11 11 12 12 12 11
10 9 11 4 7 10 1 7 8 9 13 15 22 24 24 11 9 16 8 19 22 22 20 18 16 14 17 18 20 18 16 13 11 9 10 11 11 10 11 11 13 11 12 15
8 8 17 15 11 11 8 8 12 9 4 1 13 21 13 12 13 3 3 4 7 10 17 17 15 14 15 16 17 17 15 14 11 10 11 10 9 10 10 12 12 10 11 13
15 11 9 11 13 22 7 10 14 5 1 3 4 8 13 17 11 11 5 4 4 5 9 17 16 14 14 16 17 16 14 11 10 10 10 9 9 9 11 10 10 9 10 12
10 14 13 13 10 3 15 13 16 3 3 3 3 5 9 9 10 11 8 4 2 4 9 14 17 17 16 18 16 15 11 10 9 8 7 8 9 9 8 8 9 10 9 10
14 10 11 7 19 9 12 16 8 13 13 5 5 2 7 6 8 10 8 6 5 7 10 14 17 17 16 14 14 11 9 8 8 7 7 9 9 9 8 7 7 8 9 11
15 13 17 18 19 3 11 13 16 18 13 11 10 7 7 7 9 9 8 10 9 12 11 13 14 14 14 14 11 9 9 8 6 7 8 8 8 8 8 8 8 9 9 9
16 20 14 17 18 16 21 15 21 17 16 18 16 13 13 11 10 9 10 12 15 15 15 14 13 11 10 10 10 9 9 9 7 8 8 7 7 7 8 9 11 12 10 9
Wind_Direction
87 232 203 124 48 64 93 288 290 290 65 289 264 282 287 292 239 250 240 226 220 223 216 209 209 210 212 214 215 216 216 218 215 219 225 237 242 247 247 247 248 246 244 244
211 240 108 121 134 161 224 279 275 270 260 287 307 296 288 245 245 248 235 217 221 222 211 210 205 205 209 212 216 217 220 217 216 219 224 232 241 246 247 250 248 249 246 245
253 70 144 173 170 216 225 263 283 308 320 256 297 262 210 192 242 236 235 235 229 224 221 209 204 206 206 212 213 216 218 217 218 220 223 234 241 251 254 252 253 249 247 246
254 127 182 189 225 232 265 174 185 310 309 286 273 271 205 198 236 221 205 209 220 215 215 220 210 206 207 214 213 215 216 217 218 217 220 226 234 247 252 253 253 249 249 249
115 180 184 211 240 199 42 142 326 284 271 288 189 254 136 176 216 203 197 191 194 200 207 201 203 206 210 206 210 213 215 217 217 217 223 229 238 247 256 254 257 253 253 254
113 92 235 21 95 44 136 170 213 226 253 241 126 255 193 186 208 183 187 184 171 170 177 193 189 193 198 197 204 211 213 220 221 224 229 233 239 245 252 255 257 261 259 255
172 195 155 184 158 136 200 215 217 208 206 278 114 235 273 191 180 180 176 169 167 168 177 177 188 193 194 199 204 209 212 217 221 226 232 239 245 247 251 257 258 259 260 258
211 209 184 166 240 245 191 256 274 260 241 34 152 230 213 194 169 167 162 159 175 187 182 185 193 195 197 200 203 209 213 219 221 230 238 244 249 252 256 260 258 260 261 261
197 217 122 81 124 253 156 216 18 275 139 270 202 244 251 201 201 199 198 196 193 188 187 192 192 194 190 197 204 206 210 220 224 235 244 251 256 257 260 265 265 265 267 265
191 210 135 119 174 133 256 130 173 208 226 243 206 258 226 189 198 196 197 201 194 194 192 196 197 192 193 197 196 199 208 217 226 240 251 260 264 266 269 270 267 266 269 270
181 240 124 170 207 192 167 202 217 297 247 269 293 235 229 201 195 192 196 196 193 194 192 188 185 184 185 189 190 192 198 203 215 238 254 267 276 277 276 275 277 276 275 273
193 239 212 200 112 295 255 229 201 229 187 235 310 279 150 216 201 197 194 191 192 195 188 183 181 181 185 184 177 184 189 192 198 213 238 273 295 298 294 288 286 282 279 279
176 214 210 195 184 187 220 203 212 120 130 212 202 234 81 219 213 203 200 194 195 200 197 195 192 192 193 191 191 195 199 198 196 201 224 266 304 307 307 303 298 290 284 281
183 205 230 237 73 119 198 197 204 210 217 225 229 267 272 222 218 203 209 210 203 203 203 204 204 201 199 197 199 202 205 203 201 207 225 261 288 302 309 309 307 302 293 283
207 241 232 248 247 198 220 200 196 210 227 227 244 231 251 253 227 218 217 212 214 213 212 211 209 207 205 202 203 206 209 206 207 214 233 264 283 297 306 312 309 304 296 289
201 233 208 252 239 231 248 230 207 216 234 245 261 269 251 265 272 235 222 215 217 217 218 216 214 212 209 206 205 206 210 210 211 221 239 270 292 296 305 312 312 309 303 295
183 214 206 250 181 237 258 226 211 210 214 219 228 245 242 237 236 239 233 223 223 219 218 215 214 214 214 210 207 207 208 206 214 228 253 278 292 301 306 310 310 309 300 293
188 201 214 255 172 244 256 25 215 213 219 219 238 253 231 240 247 249 242 233 228 223 224 224 221 220 217 213 209 206 204 207 216 236 265 278 292 293 301 305 304 305 300 299
210 194 209 223 224 277 279 191 184 189 245 233 232 247 252 228 275 264 247 222 231 227 227 224 222 226 220 213 204 197 199 204 219 241 256 282 281 289 290 297 301 303 300 300
195 231 220 166 224 242 101 203 167 154 263 238 217 236 247 216 245 257 266 221 230 234 225 214 205 198 203 197 185 184 192 198 217 233 266 277 282 282 285 294 301 299 298 296
185 199 214 218 237 256 213 148 162 192 269 79 212 225 230 205 220 300 14 265 253 249 224 206 182 183 184 173 171 177 184 203 217 248 267 273 273 281 288 294 294 290 291 294
187 188 202 224 223 247 136 138 200 204 48 221 205 227 220 225 245 249 273 270 248 249 205 194 168 165 163 166 168 175 192 202 229 252 261 266 278 281 291 284 291 290 296 301
217 209 203 200 227 218 186 204 214 280 276 229 226 199 221 233 240 237 236 225 200 183 170 168 157 151 161 170 175 178 193 211 235 245 256 272 278 282 281 283 289 301 308 306
216 219 228 209 230 229 211 225 228 218 232 226 228 221 198 226 235 223 212 191 172 156 158 160 159 162 164 171 180 187 196 220 231 243 262 271 277 281 281 282 287 299 307 302
221 171 222 238 243 226 240 240 233 233 228 234 236 231 242 229 232 217 202 203 191 177 172 170 170 169 166 171 181 196 206 214 227 249 262 267 266 275 286 286 288 288 289 275
218 221 215 238 233 233 239 228 229 235 228 229 231 232 228 218 226 205 215 199 190 185 178 178 177 172 167 174 184 199 211 221 225 245 254 258 271 280 283 289 293 294 297 284
Height
843 843 843 843 847 847 849 850 850 844 850 852 839 835 823 818 825 824 822 821 822 824 828 833 838 841 844 848 850 852 855 857 861 863 864 866 865 866 866 865 865 865 865 866
845 844 845 848 852 852 852 850 845 845 851 850 835 830 816 817 817 818 816 816 817 819 823 828 832 836 839 842 844 847 850 853 856 858 860 862 862 861 861 860 859 858 859 859
844 848 849 850 854 854 852 851 850 853 848 847 847 825 815 813 816 815 815 815 815 816 817 820 825 830 834 836 839 841 845 848 850 852 855 856 856 854 854 853 852 852 853 853
844 850 851 851 851 850 853 854 856 857 853 840 846 822 813 808 809 810 806 808 809 812 816 818 821 825 828 831 835 838 841 843 845 847 849 849 850 849 848 849 848 847 847 847
846 851 853 852 849 851 853 857 857 858 853 851 842 838 799 813 810 804 802 804 807 809 811 813 817 820 823 827 830 833 835 837 839 841 842 844 843 843 843 843 842 841 841 840
848 849 849 847 856 856 858 856 858 858 851 844 836 838 801 805 798 798 799 802 805 807 809 813 816 818 820 823 825 826 829 831 833 834 835 836 836 838 838 837 836 836 835 833
849 847 850 850 853 857 855 854 846 847 848 831 849 845 797 792 796 791 797 800 803 805 807 809 812 814 817 819 820 822 823 825 828 828 829 829 830 831 830 830 830 829 828 826
843 849 848 846 843 841 851 849 839 849 837 831 853 831 792 793 795 797 798 799 802 804 805 807 808 811 813 815 817 818 820 822 823 823 824 824 825 825 824 824 824 823 821 820
840 843 851 852 849 849 852 855 848 847 859 846 813 806 792 797 797 798 798 800 798 799 801 803 806 808 810 811 812 814 816 817 818 819 820 821 820 819 817 818 817 816 815 814
827 840 852 854 852 854 849 846 849 845 850 839 809 812 782 796 790 791 794 794 793 796 799 801 803 805 806 808 809 811 812 814 815 815 815 815 816 815 814 812 811 809 808 807
826 831 855 854 848 838 853 846 848 842 839 828 817 789 765 769 774 779 782 785 787 791 794 797 800 802 803 805 806 808 809 810 811 811 812 812 812 811 809 808 807 805 804 803
823 823 835 833 842 844 837 827 826 825 837 840 841 797 774 771 766 771 775 779 783 787 790 793 796 798 800 802 804 805 806 807 808 809 810 810 809 808 806 805 803 801 799 798
821 822 829 833 841 844 838 829 827 834 834 831 826 785 776 776 780 776 774 777 781 784 787 790 792 794 796 799 800 802 803 805 806 806 807 806 805 804 804 802 800 798 795 793
816 814 806 805 805 812 830 831 828 820 826 807 807 779 769 772 776 775 777 775 775 779 782 784 787 789 791 794 796 798 800 801 802 803 803 803 803 801 800 798 796 794 792 791
815 815 807 804 812 816 811 817 826 824 804 805 782 789 767 760 764 766 767 772 774 776 778 780 782 784 786 789 791 794 796 797 798 799 799 800 799 798 796 795 792 789 786 784
816 809 814 809 807 812 811 807 810 812 805 797 796 784 766 765 762 765 763 767 769 770 771 773 776 778 779 782 785 788 790 792 793 795 795 796 796 795 793 791 788 785 783 781
811 808 815 807 811 816 810 792 797 795 791 787 795 756 756 761 762 756 755 757 759 758 760 763 766 768 771 775 779 782 784 787 789 791 792 792 791 790 788 785 782 779 777 774
802 804 805 804 812 813 760 769 763 771 765 770 759 746 749 746 747 746 745 748 749 750 751 753 757 761 764 768 772 777 780 783 785 787 788 788 787 786 783 781 779 776 774 771
789 793 808 804 796 771 759 770 771 773 756 750 756 743 735 748 756 744 736 740 737 738 740 742 745 750 756 760 765 771 776 779 781 782 783 783 782 780 778 776 774 772 770 768
796 790 786 814 800 784 743 733 747 754 756 726 731 736 734 743 756 727 718 722 726 728 732 737 741 745 749 753 758 765 771 774 776 778 778 777 776 775 773 771 770 769 766 763
793 793 787 782 783 750 733 746 748 765 737 721 719 719 728 739 723 719 723 723 724 725 728 733 737 740 744 750 755 761 766 768 770 771 772 771 771 770 769 768 766 765 763 760
766 776 778 775 778 769 735 749 741 718 716 718 721 720 723 722 722 722 722 723 723 725 727 729 732 738 743 747 752 757 760 763 764 766 767 767 766 765 765 764 763 761 760 758
751 729 737 740 723 716 721 711 716 718 716 716 718 718 720 721 722 721 721 722 723 724 726 728 731 736 740 743 747 752 756 758 761 763 763 763 762 762 761 760 759 758 755 754
729 724 728 732 709 718 717 714 715 712 713 713 715 715 719 717 718 718 720 721 723 726 727 728 731 734 738 742 745 749 752 754 757 758 759 759 759 758 757 756 755 754 751 749
703 723 716 708 702 714 713 711 707 706 710 712 711 712 713 714 714 715 716 718 721 724 727 729 731 734 737 740 742 745 748 750 752 753 754 754 754 753 752 751 750 748 745 744
695 696 706 690 695 697 697 697 699 702 702 702 704 706 707 709 709 711 712 714 717 720 722 726 728 732 736 738 740 742 743 745 747 749 750 749 749 749 749 747 744 741 739 738